Regional Weather Roundup
Issued by NWS

Home | Current Version | Previous Version | Text Only | Print | Product List | Glossary Off
Versions: 1 2 3 4 5 6 7 8 9 10 11 12 13 14 15 16 17 18 19 20 21 22 23 24 25 26 27 28 29 30 31 32 33 34 35 36 37 38 39 40 41 42 43 44 45 46 47 48 49 50

000
ASUS43 KLOT 270406
RWRIL

ILLINOIS REGIONAL WEATHER ROUNDUP
NATIONAL WEATHER SERVICE CHICAGO/ROMEOVILLE IL
1000 PM CST WED NOV 26 2014

NOTE: "FAIR" INDICATES FEW OR NO CLOUDS BELOW 12,000 FEET WITH NO
SIGNIFICANT WEATHER AND/OR OBSTRUCTIONS TO VISIBILITY.

* THESE STATIONS ARE NOT UNDER NWS QUALITY CONTROL. THEY ALSO MAY NOT
  REPORT WEATHER SUCH AS PRECIPITATION OR FOG.

ILZ001-002-007-009-015-016-024-270500-
NORTHWEST ILLINOIS

CITY           SKY/WX    TMP DP  RH WIND       PRES   REMARKS
MOLINE         CLOUDY    27  20  75 N3        30.24R
STERLING*      MOCLDY    25  18  74 N6        30.22R WCI  18
SAVANNA*       CLOUDY    25  20  80 N3        30.24R
$$

ILZ003-004-008-010-011-017-018-270500-
NORTH CENTRAL ILLINOIS

CITY           SKY/WX    TMP DP  RH WIND       PRES   REMARKS
ROCKFORD       CLOUDY    22  17  81 N13       30.23R HAZE    WCI  10
FREEPORT*      PTCLDY    20  17  86 N7        30.23R FOG     WCI  11
ROCHELLE*      CLOUDY    23  20  89 N12       30.21R FOG     WCI  11
DE KALB*       CLOUDY    21  19  89 NW10      30.19R FOG     WCI  10
PERU*          CLOUDY    25  21  83 NW10      30.21R WCI  15
$$

ILZ005-006-012>014-019>023-270500-
NORTHEAST ILLINOIS

CITY           SKY/WX    TMP DP  RH WIND       PRES   REMARKS
CHICAGO-OHARE  CLOUDY    28  23  81 NW10      30.16S WCI  19
CHICAGO-MIDWAY CLOUDY    31  24  75 NW8       30.16S WCI  23
AURORA         CLOUDY    26  21  81 N10       30.19R HAZE    WCI  16
LANSING*       CLOUDY    28  21  75 W6        30.16S WCI  22
JOLIET*        CLOUDY    27  21  79 NW5       30.18S WCI  21
WAUKEGAN       CLOUDY    25  20  81 NW6       30.16S HAZE    WCI  18
DUPAGE AIRPORT CLOUDY    27  22  81 NW10      30.17R WCI  17
KANKAKEE*      CLOUDY   N/A N/A N/A NW3       30.17S
WHEELING       CLOUDY    27  22  81 NW13      30.19R WCI  16
MORRIS*        CLOUDY    26  24  90 NW6       30.18S WCI  20
ROMEOVILLE*    CLOUDY    27  22  82 NW6       30.18R WCI  20
NORTHERLY ISL    N/A     31  25  78 W9          N/A  WCI  23
$$

LMZ740>746-270500-
SOUTHERN LAKE MICHIGAN

STATION/POSITION SKY/WX   TEMP    WIND        PRES    VSBY  WAVE
                          AIR SEA DIR/SP/G                  HT/PER
                          (F)     (DEG/KT/KT) (MB)    (MI)  (FT/S)
SOUTHERN BUOY              32 42  260/  2/  4 1021.7R         0
WAUKEGAN HARBOR            26     320/  9/ 14   N/A
HARRISON CRIB              30     310/ 11/ 13   N/A
BURNHAM HARBOR             31     290/  6/ 12   N/A
CALUMET HARBOR             32      30/  4/  6 1019.9R
MICHIGAN CITY              27     120/  2/  3   N/A
$$

ILZ025>027-034>036-040-047-049-050-058-095>099-270500-
WEST-CENTRAL ILLINOIS

CITY           SKY/WX    TMP DP  RH WIND       PRES   REMARKS
QUINCY         LGT SNOW  29  27  92 N15       30.21R FOG     WCI  18
GALESBURG*     CLOUDY    25  21  87 N10       30.23R WCI  14
MACOMB*        LGT SNOW  27  26  96 N8        30.24R WCI  18
JACKSONVILLE*  LGT SNOW  30  28  90 N13       30.19R WCI  20
PITTSFIELD*    CLOUDY    31  29  94 N9        30.20R WCI  23
$$

ILZ028>032-037-038-041>044-048-051>054-059>061-270500-
CENTRAL ILLINOIS

CITY           SKY/WX    TMP DP  RH WIND       PRES   REMARKS
PONTIAC        CLOUDY    27  22  82 N5        30.19S WCI  21
BLOOMINGTON    CLOUDY    27  23  84 N12       30.17R WCI  17
DECATUR        LGT SNOW  28  25  88 N12       30.15R FOG     WCI  18
PEORIA         CLOUDY    28  21  75 N9        30.21R WCI  19
LACON*         MOCLDY    25  19  79 NW7       30.21R WCI  17
LINCOLN*       LGT SNOW  29  27  92 N9        30.19R WCI  21
SPRINGFIELD    LGT SNOW  29  27  92 N8        30.18R FOG     WCI  21
TAYLORVILLE    LGT SNOW  28  28 100 N10       30.15R WCI  19
$$

ILZ033-039-045-046-055>057-062-063-270500-
EAST-CENTRAL ILLINOIS

CITY           SKY/WX    TMP DP  RH WIND       PRES   REMARKS
CHAMPAIGN      LGT SNOW  28  23  81 N12       30.15R WCI  18
DANVILLE*      CLOUDY    27  23  83 N8        30.11R WCI  19
RANTOUL*       CLOUDY    29  23  79 N10       30.15R WCI  19
MATTOON        FLURRIES  29  26  89 N13       30.12R WCI  19
PARIS*         CLOUDY    30  26  87 N7        30.13R WCI  23
$$

ILZ079-100>102-270500-
SOUTHWEST ILLINOIS

CITY           SKY/WX    TMP DP  RH WIND       PRES   REMARKS
ALTON          LGT SNOW  32  32  99 CALM      30.13R
BELLEVILLE     CLOUDY    32  32 100 N5        30.12R FOG     WCI  27
CAHOKIA*       CLOUDY    33  33 100 CALM      30.12R FOG
SPARTA*        CLOUDY    32  32 100 W3        30.12R FOG
$$

ILZ064>066-069>071-074>076-080>082-084>086-088>090-092>094-270500-
SOUTH-CENTRAL ILLINOIS

CITY           SKY/WX    TMP DP  RH WIND       PRES   REMARKS
CARBONDALE     LGT SNOW  33  31  92 W5        30.11R FOG     WCI  29
CAIRO*         CLOUDY    39  35  84 W6        30.11R WCI  35
EFFINGHAM*     LGT SNOW  30  28  89 N5        30.12R WCI  26
MARION         CLOUDY    34  32  93 CALM      30.10R FOG
MT. VERNON     CLOUDY    32  28  86 CALM      30.10R
CENTRALIA*     LGT SNOW  32  31  94 CALM      30.10R
SALEM*         LGT SNOW  33  32  94 N3        30.11R
METROPOLIS*    CLOUDY    37  37 100 NW5         N/A  WCI  33
$$

ILZ067-068-072-073-078-083-087-091-270500-
SOUTHEAST ILLINOIS

CITY           SKY/WX    TMP DP  RH WIND       PRES   REMARKS
LAWRENCEVILLE  LGT SNOW  32  31  96 N7        30.10R FOG     WCI  26
FLORA*         MIX PCPN  32  32 100 N3        30.11R
FAIRFIELD*     MIX PCPN  33  32  98 N5        30.09R WCI  28
HARRISBURG*    LGT SNOW  33  33 100 NW3       30.10R
ROBINSON*      CLOUDY    32  29  89 N8        30.11R WCI  25
CARMI*         LGT RAIN  34  34 100 NW3       30.08R
$$

ABBREVIATIONS USED IN REMARKS
   TC - TEMPERATURE IN CELSIUS
  WCI - WIND CHILL INDEX
   HX - HEAT INDEX
  VSB - VISIBILITY
$$




USA.gov is the U.S. government's official web portal to all federal, state and local government web resources and services.